Miscellaneous Local Product
Issued by NWS Hastings, NE

Home | Current Version | Previous Version | Graphics & Text | Print | Product List | Glossary On
Versions: 1 2 3 4 5 6 7 8 9 10 11 12 13 14 15 16 17 18 19 20 21 22 23 24 25 26 27 28 29 30 31 32 33 34 35 36 37 38 39 40 41 42 43 44 45 46 47 48 49 50
000
AXUS43 KGID 021102
MISGRI

GID CWA HOURLY WEATHER ROUNDUP
NATIONAL WEATHER SERVICE HASTINGS NE
500 AM CST MON MAR 02 2015

NOTE: "FAIR" INDICATES FEW OR NO CLOUDS BELOW 12,000 FEET WITH NO
SIGNIFICANT WEATHER AND/OR OBSTRUCTIONS TO VISIBILITY.

...SOUTH CENTRAL NEBRASKA...

CITY           SKY/WX    TMP DP  RH WIND       PRES   REMARKS
GRAND ISLAND   MOCLDY    26  12  55 E9        30.39F WCI  17
HASTINGS       CLOUDY    29  12  49 E12       30.34F WCI  19
KEARNEY        CLOUDY    28  12  50 E8        30.35S WCI  20
ORD            MOCLDY    18  10  71 CALM      30.36F
YORK           MOCLDY    25  14  63 SE7       30.42F WCI  17
AURORA         MOCLDY    24  14  63 E7        30.39F WCI  16
LEXINGTON      CLOUDY    30  15  53 SE8       30.32S WCI  22
HOLDREGE       CLOUDY    28  16  58 SE7       30.32F WCI  21
HEBRON         CLOUDY    29  23  79 CALM      30.40F

...NEBRASKA PANHANDLE...

CITY           SKY/WX    TMP DP  RH WIND       PRES   REMARKS
CHADRON        CLOUDY    29  16  58 S15G22    30.07F WCI  18
ALLIANCE       CLOUDY    22  14  71 S9        30.11F WCI  12
SCOTTSBLUFF    CLOUDY    30  18  60 SE10      30.10F WCI  21
SIDNEY         MOCLDY    25  18  74 S17G24    30.12F WCI  12

...WESTERN AND NORTH CENTRAL NEBRASKA...

CITY           SKY/WX    TMP DP  RH WIND       PRES   REMARKS
VALENTINE      CLEAR     16   8  71 SE6       30.25F WCI   7
AINSWORTH      CLEAR     20  10  66 SE7       30.27F WCI  11
ONEILL         PTCLDY    19  10  70 SE6       30.38F WCI  10
BROKEN BOW     MOCLDY    24  12  60 E7        30.31F WCI  16
IMPERIAL         N/A     29  18  63 S10       30.22F WCI  20
NORTH PLATTE   CLOUDY    24  13  62 E9        30.27F WCI  14
MCCOOK         CLOUDY    32  20  61 SE7       30.28F WCI  26

...EASTERN NEBRASKA...

CITY           SKY/WX    TMP DP  RH WIND       PRES   REMARKS
NORFOLK        MOCLDY    15  10  80 CALM      30.43R
SO SIOUX CITY  PTCLDY    14   9  80 E5        30.48S WCI   6
TEKAMAH        MOCLDY    16  11  80 CALM      30.50R
COLUMBUS       MOCLDY    19   9  63 E6        30.44F WCI  11
ALBION         MOCLDY    15   9  75 CALM      30.41S
OMAHA EPPLEY   CLOUDY    18  14  84 NE5       30.48S WCI  11
OFFUTT AFB     PTCLDY    22  15  71 NE5       30.47S WCI  16
MILLARD        PTCLDY    22  17  79 CALM      30.48S
LINCOLN        MOCLDY    26  15  63 CALM      30.46F
NEBRASKA CITY  PTCLDY    24  17  75 NE5       30.46S WCI  18
BEATRICE       MOCLDY    26  20  79 CALM      30.44S
FALLS CITY     PTCLDY    23  20  88 SE3       30.46S

...NORTHERN KANSAS...

CITY           SKY/WX    TMP DP  RH WIND       PRES   REMARKS
GOODLAND       CLEAR     23  20  88 S8        30.23F WCI  14
HILL CITY      MOCLDY    28  21  75 SE3       30.34F
NORTON         FLURRIES  30  19  64 S17       30.32S WCI  18
PHILLIPSBURG   CLOUDY    32  25  74 SE8       30.37S WCI  25
SMITH CENTER   CLOUDY    28  21  74 SE5       30.39R WCI  23
BELOIT         CLOUDY    28  23  80 E3        30.41S
HAYS           PTCLDY    19  10  68 SE5       30.36F WCI  13
RUSSELL        FAIR      21  19  92 S7        30.38R WCI  12
CONCORDIA      CLOUDY    29  22  75 CALM      30.40F
SALINA         MOCLDY    22  18  85 SE5       30.43F WCI  16
TOPEKA         PTCLDY    20  17  88 CALM      30.49S



USA.gov is the U.S. government's official web portal to all federal, state and local government web resources and services.